Location: Penton Mewsey
(51.2167°N, 1.5167°W)
Time: 05:24:22
(UTC+00:00)

STARLINK-1106 - Pass Details

Date: 30 March 2020
Orbit: 548 x 550 km, 53.0° (Epoch: 01 June)

Event Time Altitude Azimuth Distance (km) Brightness Sun altitude
Rises 19:14:08 0° 285° (WNW) 2,675 10.0 -6.6°
Reaches altitude 10° 19:16:21 10° 286° (WNW) 1,784 8.1 -6.9°
Maximum altitude 19:20:24 85° 16° (NNE) 540 3.6 -7.5°
Enters shadow 19:24:20 11° 105° (ESE) 1,740 5.5 -8.1°
